Location: �chenoz-la-M�line
(47.6009°N, 6.1354°E)
Time: 08:29:35
(UTC+00:00)

Meteor 1-11 - Visible Passes

Search period start: 11 May 2021 00:00
Search period end: 21 May 2021 00:00
Orbit: 840 x 887 km, 81.2° (Epoch: 10 May)

Date Brightness Start Highest point End Pass type
(mag) Time Alt. Az. Time Alt. Az. Time Alt. Az.
11 May 7.1 03:10:10 10° ESE 03:13:13 15° E 03:16:16 10° NE visible
12 May 7.1 03:02:05 10° ESE 03:05:06 15° E 03:08:07 10° NE visible
13 May 7.0 02:54:00 10° ESE 02:56:59 15° E 02:59:58 10° NE visible
14 May 7.0 02:45:54 10° ESE 02:48:52 14° E 02:51:48 10° NE visible
15 May 7.0 02:37:49 10° ESE 02:40:45 14° E 02:43:39 10° NE visible
16 May 7.0 02:29:44 10° ESE 02:32:38 14° E 02:35:30 10° NE visible
17 May 6.9 02:21:39 10° ESE 02:24:30 14° E 02:27:21 10° NE visible
18 May 6.9 02:13:35 10° ESE 02:16:23 14° E 02:19:12 10° NE visible
19 May 6.9 02:05:29 10° ESE 02:08:16 14° E 02:11:02 10° NE visible
20 May 6.9 01:57:25 10° ESE 02:00:09 14° E 02:02:53 10° NE visible
